When you browse on this site, cookies collect data to enhance your experience and personalize the content and advertising you see.
Visit our Privacy Policy to learn more. By continuing to use the site, you agree to this use of cookies and data.
  • In Sweden
  • List of Countries
  • For 7 days
  • Water Temperature
  • Weather Map
  • Weather Widgets
  • user-avatar
    Login

    Hourly Weather Trebin

    Today, 25 February, Tuesday

    Time Temperature Precipitation Wind Pressure Humidity
    00:00 0°C° 0.3 mm 4 mps 742 mmHg 90%
    01:00 0°C° 0 mm 4 mps 741 mmHg 95%
    02:00 0°C° 0.5 mm 4 mps 739 mmHg 95%
    03:00 0°C° 0.5 mm 4 mps 738 mmHg 96%
    04:00 0°C° 0.5 mm 5 mps 737 mmHg 96%
    05:00 0°C° 0.3 mm 5 mps 737 mmHg 96%
    06:00 +1°C° 0.3 mm 4 mps 736 mmHg 96%
    07:00 +3°C° 0 mm 4 mps 736 mmHg 95%
    08:00 +3°C° 0.2 mm 5 mps 736 mmHg 92%
    09:00 +4°C° 0.2 mm 6 mps 735 mmHg 89%
    10:00 +6°C° 0.2 mm 7 mps 735 mmHg 86%
    11:00 +8°C° 0.1 mm 7 mps 735 mmHg 79%
    12:00 +9°C° 0.1 mm 7 mps 735 mmHg 71%
    13:00 +10°C° 0.1 mm 7 mps 734 mmHg 63%
    14:00 +10°C° 0.1 mm 7 mps 734 mmHg 66%
    15:00 +9°C° 0.1 mm 6 mps 733 mmHg 68%
    16:00 +9°C° 0.1 mm 5 mps 733 mmHg 70%
    17:00 +8°C° 0.5 mm 5 mps 733 mmHg 75%
    18:00 +7°C° 0.5 mm 4 mps 733 mmHg 80%
    19:00 +6°C° 0.5 mm 4 mps 733 mmHg 85%
    20:00 +6°C° 0.1 mm 4 mps 732 mmHg 82%
    21:00 +6°C° 0.1 mm 4 mps 732 mmHg 78%
    22:00 +5°C° 0.1 mm 4 mps 732 mmHg 74%
    23:00 +4°C° 0 mm 4 mps 732 mmHg 77%

    Tomorrow, 26 February, Wednesday

    Time Temperature Precipitation Wind Pressure Humidity
    00:00 +4°C° 0 mm 3 mps 732 mmHg 79%
    01:00 +3°C° 0 mm 3 mps 732 mmHg 81%
    02:00 +2°C° 0 mm 3 mps 732 mmHg 84%
    03:00 +2°C° 0 mm 3 mps 731 mmHg 87%
    04:00 +2°C° 0 mm 3 mps 731 mmHg 89%
    05:00 +2°C° 0 mm 3 mps 730 mmHg 89%
    06:00 +2°C° 0 mm 3 mps 730 mmHg 88%
    07:00 +1°C° 0 mm 3 mps 730 mmHg 87%
    08:00 +1°C° 0 mm 4 mps 730 mmHg 83%
    09:00 +2°C° 0 mm 5 mps 730 mmHg 79%
    10:00 +3°C° 0 mm 6 mps 730 mmHg 74%
    11:00 +3°C° 0 mm 6 mps 730 mmHg 71%
    12:00 +4°C° 0 mm 6 mps 730 mmHg 68%
    13:00 +4°C° 0 mm 6 mps 730 mmHg 65%
    14:00 +5°C° 0 mm 5 mps 730 mmHg 65%
    15:00 +4°C° 0 mm 4 mps 730 mmHg 65%
    16:00 +4°C° 0 mm 4 mps 730 mmHg 65%
    17:00 +3°C° 0 mm 4 mps 730 mmHg 71%
    18:00 +3°C° 0 mm 4 mps 731 mmHg 78%
    19:00 +1°C° 0 mm 4 mps 731 mmHg 84%
    20:00 +1°C° 0.5 mm 4 mps 731 mmHg 87%
    21:00 0°C° 0.5 mm 4 mps 731 mmHg 89%
    22:00 0°C° 0.5 mm 4 mps 732 mmHg 91%
    23:00 0°C° 0.1 mm 5 mps 732 mmHg 89%

    Day after tomorrow, 27 February, Thursday

    Time Temperature Precipitation Wind Pressure Humidity
    00:00 -1°C° 0.1 mm 5 mps 732 mmHg 87%
    01:00 -1°C° 0.1 mm 5 mps 733 mmHg 85%
    02:00 -1°C° 0 mm 5 mps 733 mmHg 86%
    03:00 -3°C° 0 mm 6 mps 733 mmHg 87%
    04:00 -3°C° 0 mm 6 mps 733 mmHg 88%
    05:00 -3°C° 0.2 mm 6 mps 734 mmHg 89%
    06:00 -3°C° 0.2 mm 6 mps 734 mmHg 91%
    07:00 -3°C° 0.2 mm 7 mps 735 mmHg 92%
    08:00 -3°C° 0.1 mm 7 mps 735 mmHg 85%
    09:00 -2°C° 0.1 mm 7 mps 736 mmHg 79%
    10:00 -2°C° 0.1 mm 7 mps 736 mmHg 72%
    11:00 -2°C° 0 mm 7 mps 736 mmHg 69%
    12:00 -1°C° 0 mm 7 mps 737 mmHg 66%
    13:00 -1°C° 0 mm 7 mps 737 mmHg 63%
    14:00 -1°C° 0 mm 7 mps 736 mmHg 68%
    15:00 -1°C° 0 mm 6 mps 736 mmHg 72%
    16:00 -1°C° 0 mm 6 mps 736 mmHg 77%
    17:00 0°C° 0 mm 5 mps 735 mmHg 79%
    18:00 -1°C° 0 mm 4 mps 735 mmHg 81%
    19:00 -1°C° 0 mm 3 mps 735 mmHg 84%
    20:00 -1°C° 0 mm 3 mps 735 mmHg 84%
    21:00 -1°C° 0 mm 3 mps 734 mmHg 84%
    22:00 -1°C° 0 mm 2 mps 734 mmHg 84%
    23:00 -1°C° 0 mm 2 mps 734 mmHg 84%

    28 February, Friday

    Time Temperature Precipitation Wind Pressure Humidity
    00:00 -1°C° 0 mm 2 mps 733 mmHg 84%
    01:00 -1°C° 0 mm 2 mps 733 mmHg 84%
    02:00 -1°C° 0 mm 2 mps 733 mmHg 84%
    03:00 -1°C° 0 mm 2 mps 732 mmHg 85%
    04:00 -1°C° 0 mm 2 mps 732 mmHg 85%
    05:00 -1°C° 0.1 mm 2 mps 733 mmHg 87%
    06:00 -1°C° 0.1 mm 2 mps 733 mmHg 88%
    07:00 -1°C° 0.1 mm 3 mps 734 mmHg 90%
    08:00 -1°C° 0.1 mm 3 mps 735 mmHg 90%
    09:00 0°C° 0.1 mm 3 mps 735 mmHg 90%
    10:00 -1°C° 0.1 mm 4 mps 736 mmHg 90%
    11:00 -1°C° 0.3 mm 4 mps 737 mmHg 89%
    12:00 0°C° 0.3 mm 4 mps 738 mmHg 88%
    13:00 0°C° 0.3 mm 4 mps 739 mmHg 87%
    14:00 0°C° 0.1 mm 4 mps 739 mmHg 84%
    15:00 +1°C° 0.1 mm 3 mps 740 mmHg 80%
    16:00 +1°C° 0.1 mm 3 mps 740 mmHg 77%
    17:00 +1°C° 0 mm 3 mps 741 mmHg 80%
    18:00 0°C° 0 mm 3 mps 741 mmHg 83%
    19:00 0°C° 0 mm 3 mps 742 mmHg 87%
    20:00 0°C° 0 mm 3 mps 742 mmHg 88%
    21:00 -1°C° 0 mm 3 mps 742 mmHg 89%
    22:00 -1°C° 0 mm 3 mps 742 mmHg 90%
    23:00 -1°C° 0.2 mm 3 mps 742 mmHg 91%

    29 February, Saturday

    Time Temperature Precipitation Wind Pressure Humidity
    00:00 -2°C° 0.2 mm 4 mps 742 mmHg 93%
    01:00 -2°C° 0.2 mm 4 mps 743 mmHg 95%
    02:00 -2°C° 0.1 mm 4 mps 743 mmHg 92%
    03:00 -2°C° 0.1 mm 4 mps 743 mmHg 90%
    04:00 -2°C° 0.1 mm 4 mps 744 mmHg 87%
    05:00 -2°C° 0 mm 3 mps 744 mmHg 87%
    06:00 -2°C° 0 mm 3 mps 745 mmHg 87%
    07:00 -2°C° 0 mm 2 mps 745 mmHg 87%
    08:00 -2°C° 0 mm 2 mps 746 mmHg 80%
    09:00 -1°C° 0 mm 2 mps 746 mmHg 73%
    10:00 +2°C° 0 mm 1 mps 746 mmHg 66%
    11:00 +2°C° 0 mm 1 mps 746 mmHg 64%
    12:00 +3°C° 0 mm 1 mps 746 mmHg 61%
    13:00 +3°C° 0 mm 1 mps 746 mmHg 59%
    14:00 +2°C° 0 mm 2 mps 746 mmHg 61%
    15:00 +2°C° 0 mm 2 mps 745 mmHg 63%
    16:00 +1°C° 0 mm 3 mps 745 mmHg 65%
    17:00 +1°C° 0 mm 3 mps 745 mmHg 70%
    18:00 0°C° 0 mm 3 mps 744 mmHg 74%
    19:00 -1°C° 0 mm 3 mps 744 mmHg 79%
    20:00 -2°C° 0 mm 4 mps 744 mmHg 78%
    21:00 -2°C° 0 mm 5 mps 743 mmHg 77%
    22:00 -2°C° 0 mm 5 mps 743 mmHg 76%
    23:00 -3°C° 0 mm 6 mps 742 mmHg 76%

    1 March, Sunday

    Time Temperature Precipitation Wind Pressure Humidity
    00:00 -3°C° 0 mm 6 mps 742 mmHg 75%
    01:00 -2°C° 0 mm 6 mps 741 mmHg 75%
    02:00 -2°C° 0 mm 6 mps 740 mmHg 78%
    03:00 -2°C° 0 mm 6 mps 740 mmHg 81%
    04:00 -2°C° 0 mm 7 mps 739 mmHg 84%
    05:00 -1°C° 0.7 mm 6 mps 739 mmHg 87%
    06:00 -1°C° 0.7 mm 6 mps 739 mmHg 90%
    07:00 +1°C° 0.7 mm 5 mps 739 mmHg 93%
    08:00 +2°C° 0 mm 6 mps 739 mmHg 88%
    09:00 +2°C° 0 mm 6 mps 740 mmHg 83%
    10:00 +3°C° 0 mm 6 mps 740 mmHg 77%
    11:00 +3°C° 0 mm 6 mps 740 mmHg 74%
    12:00 +4°C° 0 mm 6 mps 741 mmHg 70%
    13:00 +4°C° 0 mm 6 mps 741 mmHg 67%
    14:00 +5°C° 0 mm 5 mps 741 mmHg 67%
    15:00 +5°C° 0 mm 5 mps 741 mmHg 68%
    16:00 +4°C° 0 mm 4 mps 741 mmHg 68%
    17:00 +3°C° 0 mm 4 mps 741 mmHg 72%
    18:00 +3°C° 0 mm 3 mps 741 mmHg 75%
    19:00 +2°C° 0 mm 3 mps 741 mmHg 79%
    20:00 +1°C° 0 mm 3 mps 741 mmHg 80%
    21:00 +1°C° 0 mm 3 mps 741 mmHg 80%
    22:00 +1°C° 0 mm 3 mps 742 mmHg 81%
    23:00 +1°C° 0 mm 3 mps 741 mmHg 82%
    Show more